Satellite-Ground Cal/Val Region Overpasses Predictions

Prediction of Satellite NPP Overpassing Cal/Val Region: PacNW

Region Location: (Latitude: 10.00, Longitude: 139.50) to (Latitude: 22.70, Longitude: 165.60).

Table of predicted overpasses for the next 14.0 days since TLE Epoch: 11/30/2014
Interval Starting Time Starting Location Ending Time Ending Location
1 12/01/2014 02:18:31 ( 19.26, 165.59) 12/01/2014 02:19:29 ( 22.67, 164.76)
2 12/01/2014 03:57:24 ( 10.05, 142.37) 12/01/2014 04:00:50 ( 22.15, 139.51)
3 12/01/2014 14:47:46 ( 22.66, 164.95) 12/01/2014 14:51:21 ( 10.04, 161.96)
4 12/01/2014 16:29:16 ( 22.65, 139.57) 12/01/2014 16:29:20 ( 22.42, 139.51)
5 12/02/2014 03:38:20 ( 10.01, 147.13) 12/02/2014 03:41:56 ( 22.70, 144.13)
6 12/02/2014 16:10:13 ( 22.69, 144.34) 12/02/2014 16:13:49 ( 10.01, 141.33)
7 12/03/2014 03:19:18 ( 10.04, 151.89) 12/03/2014 03:22:53 ( 22.66, 148.90)
8 12/03/2014 15:51:10 ( 22.67, 149.09) 12/03/2014 15:54:45 ( 10.05, 146.10)
9 12/04/2014 03:00:15 ( 10.06, 156.64) 12/04/2014 03:03:50 ( 22.68, 153.65)
10 12/04/2014 15:32:08 ( 22.64, 153.84) 12/04/2014 15:35:43 ( 10.02, 150.85)
11 12/05/2014 02:41:12 ( 10.02, 161.40) 12/05/2014 02:44:47 ( 22.65, 158.41)
12 12/05/2014 15:13:05 ( 22.68, 158.60) 12/05/2014 15:16:40 ( 10.06, 155.61)
13 12/06/2014 02:22:50 ( 12.46, 165.60) 12/06/2014 02:25:44 ( 22.67, 163.16)
14 12/06/2014 04:03:38 ( 10.00, 140.79) 12/06/2014 04:05:12 ( 15.52, 139.51)
15 12/06/2014 14:54:02 ( 22.65, 163.35) 12/06/2014 14:57:37 ( 10.03, 160.36)
16 12/07/2014 03:44:36 ( 10.03, 145.54) 12/07/2014 03:48:11 ( 22.65, 142.55)
17 12/07/2014 14:37:59 ( 12.12, 165.60) 12/07/2014 14:38:35 ( 10.00, 165.11)
18 12/07/2014 16:16:29 ( 22.67, 142.74) 12/07/2014 16:20:04 ( 10.05, 139.75)
19 12/08/2014 03:25:33 ( 10.06, 150.29) 12/08/2014 03:29:08 ( 22.68, 147.30)
20 12/08/2014 15:57:26 ( 22.64, 147.49) 12/08/2014 16:01:01 ( 10.02, 144.50)
21 12/09/2014 03:06:30 ( 10.03, 155.05) 12/09/2014 03:10:05 ( 22.65, 152.06)
22 12/09/2014 15:38:23 ( 22.67, 152.25) 12/09/2014 15:41:58 ( 10.05, 149.26)
23
